Regional Weather Roundup
Issued by NWS Sioux Falls, SD

Home | Current Version | Previous Version | Text Only | Print | Product List | Glossary Off
Versions: 1 2 3 4 5 6 7 8 9 10 11 12 13 14 15 16 17 18 19 20 21 22 23 24 25 26 27 28 29 30 31 32 33 34 35 36 37 38 39 40 41 42 43 44 45 46 47 48 49 50

000
ASUS43 KFSD 040302
RWRFSD

WEATHER ROUNDUP FOR SE SOUTH DAKOTA/SW MINNESOTA/NW IOWA
NATIONAL WEATHER SERVICE SIOUX FALLS SD
1000 PM CDT SUN MAY 03 2015

NOTE: "FAIR" INDICATES FEW OR NO CLOUDS BELOW 12,000 FEET WITH NO
SIGNIFICANT WEATHER AND OR OBSTRUCTIONS TO VISIBILITY.


SDZ038>040-050-052>070-040400-
SOUTHEAST SOUTH DAKOTA

CITY           SKY/WX    TMP DP  RH WIND       PRES   REMARKS
BROOKINGS      CLEAR     55  30  38 N10       29.98R
CHAMBERLAIN    NOT AVBL
HURON          CLEAR     54  28  36 N9        29.98R
MADISON        FAIR      55  30  38 N14       29.96R
MITCHELL       CLEAR     59  36  42 N10       29.97R
SIOUX FALLS    PTCLDY    62  35  36 N10       29.95R
WINNER         FAIR      56  29  35 NE10      30.00R
YANKTON        FAIR      61  39  44 N6        29.94R
$$

MNZ071-072-080-081-089-090-097-098-040400-
SOUTHWEST MINNESOTA

CITY           SKY/WX    TMP DP  RH WIND       PRES   REMARKS
FAIRMONT       MOCLDY    64  43  45 N13       29.91R
JACKSON        MOCLDY    63  39  42 VRB8      29.94R
LUVERNE        CLEAR     63  32  31 NE13G18   29.96R
MARSHALL       CLEAR     57  27  30 N9        29.97R
MONTEVIDEO     CLEAR     57  28  33 N7        29.96R
REDWOOD FALLS  CLEAR     63  34  33 N9        29.95R
TRACY          CLEAR     61  29  29 N12       29.97R
WINDOM         PTCLDY    63  39  42 NE7       29.95R
WORTHINGTON    PTCLDY    61  37  41 NE12      29.95R
$$

IAZ001>003-012>014-020>022-031-032-NEZ013-014-SDZ071-040400-
NORTHWEST IOWA

CITY           SKY/WX    TMP DP  RH WIND       PRES   REMARKS
DENISON        CLOUDY    70  55  60 NE17      29.81R
ESTHERVILLE    MOCLDY    63  46  54 N17       29.90R
SIOUX CITY     CLOUDY    71  39  31 NE14G22   29.90R
SPENCER        MOCLDY    63  46  54 N20       29.89R
$$

ABBREVIATIONS USED IN REMARKS
   TC - TEMPERATURE IN CELSIUS
  WCI - WIND CHILL INDEX
   HX - HEAT INDEX
  VSB - VISIBILITY



USA.gov is the U.S. government's official web portal to all federal, state and local government web resources and services.